Regional Weather Roundup
Issued by NWS Sioux Falls, SD

Home | Current Version | Previous Version | Graphics & Text | Print | Product List | Glossary On
Versions: 1 2 3 4 5 6 7 8 9 10 11 12 13 14 15 16 17 18 19 20 21 22 23 24 25 26 27 28 29 30 31 32 33 34 35 36 37 38 39 40 41 42 43 44 45 46 47 48 49 50
000
ASUS43 KFSD 121810
RWRFSD

WEATHER ROUNDUP FOR SE SOUTH DAKOTA/SW MINNESOTA/NW IOWA
NATIONAL WEATHER SERVICE SIOUX FALLS SD
1200 PM CST FRI FEB 12 2016

NOTE: "FAIR" INDICATES FEW OR NO CLOUDS BELOW 12,000 FEET WITH NO
SIGNIFICANT WEATHER AND OR OBSTRUCTIONS TO VISIBILITY.


SDZ038>040-050-052>070-121900-
SOUTHEAST SOUTH DAKOTA

CITY           SKY/WX    TMP DP  RH WIND       PRES   REMARKS
BROOKINGS      SUNNY      7  -3  64 N17       30.52R WCI -12
CHAMBERLAIN    CLOUDY    18  11  75 E7        30.55R WCI   8
HURON          SUNNY     13   3  64 N16       30.60R WCI  -3
6HR MIN TEMP:  12; 6HR MAX TEMP:  15; 6HR PCP: TRACE;

MADISON        FAIR       9   1  72 N16       30.52R WCI  -9
MITCHELL       PTSUNNY   15   6  67 N13       30.60R WCI   1
6HR MIN TEMP:  14; 6HR MAX TEMP:  17;

SIOUX FALLS    MOSUNNY   11   0  61 N15       30.53R WCI  -5
6HR MIN TEMP:  11; 6HR MAX TEMP:  15;

WINNER         CLOUDY    23  13  65 NE9       30.51S WCI  13
YANKTON        CLOUDY    18   7  62 N18       30.57R WCI   2
$$

MNZ071-072-080-081-089-090-097-098-121900-
SOUTHWEST MINNESOTA

CITY           SKY/WX    TMP DP  RH WIND       PRES   REMARKS
FAIRMONT       SUNNY     10   0  61 NW24G30   30.44R WCI -10
JACKSON        SUNNY     10   0  61 NW20G30   30.46R WCI  -8
LUVERNE        SUNNY     12   1  62 N18       30.53R WCI  -5
MARSHALL       SUNNY      6  -1  73 N18       30.54R WCI -13
6HR MIN TEMP:   6; 6HR MAX TEMP:  10; 6HR PCP: TRACE;

MONTEVIDEO     PTSUNNY    7  -2  66 N20G25    30.56S HAZE    WCI -13
PIPESTONE      SUNNY     10  -6  48 N14G21    30.49R WCI  -5
REDWOOD FALLS  SUNNY      8  -4  58 NW14G26   30.52R WCI  -8
TRACY          SUNNY      9   1  68 NW21G26   30.51R WCI -10
WINDOM         SUNNY      7   1  78 NW22      30.46R HAZE    WCI -14
WORTHINGTON    SUNNY      9   0  66 N22       30.49R WCI -11
$$

IAZ001>003-012>014-020>022-031-032-NEZ013-014-SDZ071-121900-
NORTHWEST IOWA

CITY           SKY/WX    TMP DP  RH WIND       PRES   REMARKS
CHEROKEE       SUNNY     14   5  68 N14G23    30.52R WCI  -1
DENISON        MOSUNNY   16   9  73 N15       30.48R WCI   1
ESTHERVILLE    SUNNY      9   1  70 NW22      30.46R WCI -11
LE MARS        PTSUNNY   14   9  79 N14G21    30.55R WCI  -1
ORANGE CITY    MOSUNNY   12   7  79 N13G20    30.51R WCI  -3
SHELDON        SUNNY     10   3  72 N21       30.49R WCI  -9
SIOUX CITY     CLOUDY    19   9  65 N18       30.55R WCI   4
6HR MIN TEMP:  19; 6HR MAX TEMP:  22;

SPENCER        SUNNY     11   0  61 N18       30.49R WCI  -7
6HR MIN TEMP:  10; 6HR MAX TEMP:  13; 6HR PCP: TRACE;

STORM LAKE     SUNNY     12   5  73 N21       30.48R WCI  -6
$$

ABBREVIATIONS USED IN REMARKS
   TC - TEMPERATURE IN CELSIUS
  WCI - WIND CHILL INDEX
   HX - HEAT INDEX
  VSB - VISIBILITY




USA.gov is the U.S. government's official web portal to all federal, state and local government web resources and services.